Weather History for MCMWTC BRIDGEPORT, CA, CA

Change the Weather History Date:

Thursday, February 27, 2014

  Actual Average (KTVL) Record (KTVL)
Temperature  
Mean Temperature 31 °F 33 °F  
Max Temperature 39 °F 46 °F 57 °F (1992)
Min Temperature 21 °F 20 °F -11 °F (1987)
Degree Days  
Heating Degree Days 34 32  
Month to date heating degree days 922  
Since 1 July heating degree days 5204  
Cooling Degree Days 0 0  
Month to date cooling degree days 0  
Year to date cooling degree days 0  
Moisture  
Dew Point 24 °F    
Average Humidity 73    
Maximum Humidity 92    
Minimum Humidity 32    
Precipitation  
Precipitation 0.37 in - 1.92 in (1940)
Month to date precipitation  
Year to date precipitation  
Sea Level Pressure  
Sea Level Pressure 29.76 in    
Wind  
Wind Speed 8 mph (SW)    
Max Wind Speed 24 mph    
Max Gust Speed 36 mph    
Visibility 10 miles    
Events Snow    
T = Trace of Precipitation, MM = Missing Value Source: NWS Daily Summary

Daily Weather History Graph

Daily Weather History Graph

Search for Another Location

Airport:

Trip Planner

Search our weather history database for the weather conditions in past years. The results will help you decide how hot, cold, wet, or windy it might be!

Date:

Astronomy

Feb. 27, 2014 Rise Set
Actual Time 6:32 AM PST 5:49 PM PST
Civil Twilight 6:06 AM PST 6:15 PM PST
Nautical Twilight 5:35 AM PST 6:46 PM PST
Astronomical Twilight 5:04 AM PST 7:17 PM PST
Moon 5:07 AM PST (2/27) 4:21 PM PST (2/27)
Length of Visible Light 12h 09m
Length of Day
11h 16m
Waning Crescent, 3% of the Moon is Illuminated
Feb 27
Waning Crescent
Mar 1
New
Mar 8
First Quarter
Mar 16
Full
Mar 23
Last Quarter

Hourly Weather History & Observations

Time (PST) Temp. Windchill Dew Point Humidity Pressure Visibility Wind Dir Wind Speed Gust Speed Precip Events Conditions
12:44 AM 34.0 °F 28.8 °F 30.0 °F 85% 29.74 in - Variable 5.8 mph - 0.03 in Snow Light Snow
12:52 AM 34.0 °F 28.0 °F 30.9 °F 89% 29.67 in - Variable 6.9 mph - 0.03 in Snow Light Snow
1:09 AM 35.1 °F 31.0 °F 28.9 °F 78% 29.73 in - WSW 4.6 mph - 0.01 in Snow Light Snow
1:52 AM 36.0 °F 26.7 °F 28.0 °F 73% 29.65 in - SSW 15.0 mph 35.7 mph 0.02 in   Overcast
2:15 AM 35.1 °F 24.5 °F 28.0 °F 76% 29.73 in - SSW 18.4 mph 35.7 mph 0.02 in Snow Light Snow
2:52 AM 33.1 °F 23.9 °F 28.0 °F 82% 29.64 in - WSW 12.7 mph 24.2 mph 0.03 in Snow Snow
3:32 AM 32.0 °F 24.8 °F 28.9 °F 88% 29.70 in - WSW 8.1 mph - 0.01 in Snow Heavy Snow
3:48 AM 32.0 °F 23.0 °F 28.4 °F 87% 29.71 in - SW 11.5 mph 19.6 mph 0.02 in Snow Snow
3:52 AM 32.0 °F 24.8 °F 28.0 °F 85% 29.65 in - SW 8.1 mph 18.4 mph 0.02 in Snow Snow
4:52 AM 30.9 °F 26.2 °F 28.0 °F 89% 29.70 in - Variable 4.6 mph - 0.00 in Snow Heavy Snow
5:38 AM 30.9 °F 23.5 °F 27.0 °F 85% 29.77 in - SW 8.1 mph - 0.01 in Snow Heavy Snow
5:45 AM 30.0 °F 22.4 °F 28.0 °F 92% 29.77 in - SW 8.1 mph - 0.01 in Snow Heavy Snow
5:52 AM 30.0 °F 22.4 °F 28.0 °F 92% 29.74 in - SSW 8.1 mph - 0.01 in Snow Heavy Snow
6:35 AM 30.0 °F - 27.0 °F 88% 29.78 in - Calm Calm - 0.00 in Snow Light Snow
6:47 AM 30.2 °F 24.3 °F 24.8 °F 80% 29.78 in - Variable 5.8 mph - 0.00 in Snow Light Snow
6:52 AM 30.0 °F 25.2 °F 26.1 °F 85% 29.75 in - Variable 4.6 mph - 0.00 in Snow Light Snow
7:08 AM 30.0 °F 26.5 °F 26.1 °F 85% 29.78 in - SW 3.5 mph - 0.00 in Snow Light Snow
7:23 AM 30.9 °F 23.5 °F 25.0 °F 79% 29.79 in - WSW 8.1 mph 16.1 mph 0.00 in Snow Light Snow
7:39 AM 30.0 °F 23.2 °F 26.1 °F 85% 29.80 in - SW 6.9 mph - 0.00 in Snow Snow
7:52 AM 30.9 °F - 26.1 °F 82% 29.77 in - Calm Calm - 0.00 in Snow Light Snow
8:52 AM 33.1 °F 26.1 °F 25.0 °F 72% 29.79 in - WSW 8.1 mph 18.4 mph 0.04 in   Overcast
9:52 AM 34.0 °F 24.6 °F 21.0 °F 59% 29.79 in - SSW 13.8 mph 21.9 mph N/A   Overcast
10:52 AM 36.0 °F 25.0 °F 21.9 °F 57% 29.79 in - SW 20.7 mph 35.7 mph 0.03 in Snow Light Snow
11:52 AM 37.0 °F 25.6 °F 21.0 °F 52% 29.78 in - SW 24.2 mph 35.7 mph 0.18 in   Clear
12:52 PM 39.0 °F 30.6 °F 21.0 °F 49% 29.75 in - WSW 15.0 mph 26.5 mph 0.01 in   Clear
1:52 PM 39.0 °F 30.6 °F 19.9 °F 46% 29.75 in - SW 15.0 mph 26.5 mph N/A   Clear
2:52 PM 39.0 °F 32.8 °F 23.0 °F 53% 29.79 in - SSE 9.2 mph 19.6 mph N/A   Clear
3:52 PM 39.0 °F 30.6 °F 21.0 °F 49% 29.79 in - SSW 15.0 mph 27.6 mph N/A   Clear
4:52 PM 39.0 °F 34.0 °F 10.9 °F 32% 29.79 in - Variable 6.9 mph 26.5 mph N/A   Clear
5:52 PM 37.0 °F - 12.0 °F 36% 29.81 in - Calm Calm - N/A   Clear
6:52 PM 33.1 °F - 17.1 °F 52% 29.83 in - Calm Calm - N/A   Clear
7:52 PM 28.0 °F - 18.0 °F 66% 29.84 in - Calm Calm - N/A   Clear
8:52 PM 25.0 °F - 18.0 °F 75% 29.83 in - Calm Calm - N/A   Clear
9:52 PM 24.1 °F - 17.1 °F 75% 29.82 in 10.0 mi Calm Calm - N/A   Clear
10:52 PM 23.0 °F - 17.1 °F 78% 29.80 in - Calm Calm - N/A   Clear
11:52 PM 21.9 °F - 17.1 °F 82% 29.79 in - Calm Calm - N/A   Mostly Cloudy